Location: Artiguedieu
(43.5000°N, 0.5454°E)
Time: 06:22:58
(UTC+00:00)

FALCON 9 DEB - Pass Details

Date: 06 December 2020
Orbit: 425 x 438 km, 53.0° (Epoch: 19 January)

Event Time Altitude Azimuth Distance (km) Brightness Sun altitude
Exits shadow 05:50:05 32° 277° (W) 777 3.8 -15.1°
Maximum altitude 05:51:20 50° 221° (SW) 564 3.5 -14.9°
Drops below altitude 10° 05:54:42 10° 145° (SE) 1,538 6.7 -14.3°
Sets 05:56:50 0° 140° (SE) 2,400 8.0 -13.9°
